Salem, OR

3:09 PM PST on January 16, 2017 (GMT -0800)
McNary

Weather History for KSLE - June, 2013

Change the Weather History Date:

Tuesday, June 18, 2013

  Actual Average Record
Temperature  
Mean Temperature 59 °F 62 °F  
Max Temperature 68 °F 74 °F 102 °F (1982)
Min Temperature 50 °F 50 °F 34 °F (1930)
Degree Days  
Heating Degree Days 6 4  
Month to date heating degree days 59 91  
Since 1 June heating degree days 59 91  
Since 1 July heating degree days 4259 4614  
Cooling Degree Days 0 1  
Month to date cooling degree days 11 12  
Year to date cooling degree days 21 21  
Since 1 June cooling degree days 11 12  
Growing Degree Days 9 (Base 50)    
Moisture  
Dew Point 49 °F    
Average Humidity 69    
Maximum Humidity 89    
Minimum Humidity 48    
Precipitation  
Precipitation 0.02 in 0.05 in 1.47 in (1931)
Month to date precipitation 0.24 1.13  
Year to date precipitation 10.83 20.67  
Snow  
Snow 0.00 in - - ()
Month to date snowfall 0.0  
Since 1 June snowfall 0.0  
Snow Depth 0.00 in    
Sea Level Pressure  
Sea Level Pressure 29.98 in    
Wind  
Wind Speed 8 mph (SSW)    
Max Wind Speed 16 mph    
Max Gust Speed 22 mph    
Visibility 10 miles    
Events Rain , Thunderstorm    
T = Trace of Precipitation, MM = Missing Value Source: NWS Daily Summary

Daily Weather History Graph

Daily Weather History Graph

Search for Another Location

Airport or City:

Trip Planner

Search our weather history database for the weather conditions in past years. The results will help you decide how hot, cold, wet, or windy it might be!

Date:

Astronomy

Jun. 18, 2013 Rise Set
Actual Time 5:25 AM PDT 9:01 PM PDT
Civil Twilight 4:47 AM PDT 9:38 PM PDT
Nautical Twilight 3:58 AM PDT 10:28 PM PDT
Astronomical Twilight 2:52 AM PDT 11:33 PM PDT
Moon 3:42 PM PDT (6/18) 1:48 AM PDT (6/18)
Length of Visible Light 16h 50m
Length of Day
15h 36m
Waxing Gibbous, 72% of the Moon is Illuminated
Jun 18
Waxing Gibbous
Jun 23
Full
Jun 29
Last Quarter
Jul 8
New
Jul 15
First Quarter

Hourly Weather History & Observations

Time (PDT) Temp. Dew Point Humidity Pressure Visibility Wind Dir Wind Speed Gust Speed Precip Events Conditions
12:56 AM 57.0 °F 51.1 °F 81% 30.02 in 10.0 mi SSW 5.8 mph - N/A   Scattered Clouds
1:56 AM 57.0 °F 51.1 °F 81% 30.01 in 10.0 mi South 4.6 mph - N/A   Overcast
2:56 AM 55.9 °F 50.0 °F 80% 30.01 in 10.0 mi South 6.9 mph - N/A   Mostly Cloudy
3:56 AM 55.0 °F 50.0 °F 83% 30.00 in 10.0 mi South 5.8 mph - N/A   Scattered Clouds
4:56 AM 53.1 °F 50.0 °F 89% 30.00 in 10.0 mi South 4.6 mph - N/A   Partly Cloudy
5:56 AM 51.1 °F 48.0 °F 89% 30.00 in 10.0 mi SE 4.6 mph - N/A   Clear
6:56 AM 55.9 °F 50.0 °F 80% 30.00 in 10.0 mi South 8.1 mph - N/A   Partly Cloudy
7:56 AM 57.9 °F 48.9 °F 72% 30.00 in 10.0 mi SSW 11.5 mph - N/A   Mostly Cloudy
8:56 AM 61.0 °F 48.0 °F 62% 30.00 in 10.0 mi South 6.9 mph - N/A   Scattered Clouds
9:56 AM 63.0 °F 46.0 °F 54% 29.98 in 10.0 mi South 10.4 mph - N/A   Mostly Cloudy
10:56 AM 64.9 °F 46.0 °F 50% 29.98 in 10.0 mi Variable 5.8 mph - N/A   Mostly Cloudy
11:56 AM 66.0 °F 46.0 °F 48% 29.96 in 10.0 mi South 10.4 mph 19.6 mph N/A   Mostly Cloudy
12:56 PM 61.0 °F 53.1 °F 75% 29.97 in 10.0 mi West 5.8 mph - 0.00 in   Mostly Cloudy
1:56 PM 66.0 °F 48.0 °F 52% 29.95 in 10.0 mi North 4.6 mph - N/A   Mostly Cloudy
2:30 PM 59.0 °F 51.8 °F 77% 29.96 in 10.0 mi SSE 6.9 mph - N/A Rain , Thunderstorm Light Thunderstorms and Rain
2:56 PM 57.9 °F 52.0 °F 81% 29.97 in 10.0 mi SSW 5.8 mph - 0.01 in Rain Light Rain
3:56 PM 64.9 °F 48.9 °F 56% 29.95 in 10.0 mi West 13.8 mph 20.7 mph 0.01 in   Mostly Cloudy
4:56 PM 66.9 °F 50.0 °F 54% 29.95 in 10.0 mi West 12.7 mph - 0.00 in   Mostly Cloudy
5:56 PM 66.9 °F 46.0 °F 47% 29.95 in 10.0 mi SW 15.0 mph - N/A   Mostly Cloudy
6:56 PM 64.0 °F 46.9 °F 54% 29.95 in 10.0 mi SW 9.2 mph 18.4 mph N/A   Scattered Clouds
7:56 PM 62.1 °F 46.9 °F 58% 29.96 in 10.0 mi WSW 8.1 mph - N/A   Scattered Clouds
8:56 PM 60.1 °F 46.0 °F 60% 29.97 in 10.0 mi West 9.2 mph - N/A   Overcast
9:56 PM 57.0 °F 46.9 °F 69% 29.98 in 10.0 mi West 3.5 mph - N/A   Mostly Cloudy
10:56 PM 54.0 °F 46.9 °F 77% 29.99 in 10.0 mi Calm Calm - N/A   Clear
11:56 PM 50.0 °F 46.9 °F 89% 29.99 in 10.0 mi South 3.5 mph - N/A   Clear